カタログに戻る

STARLINK-36608

運用中通信VLEO
NORAD 67854·PAYLOAD·🇺🇸 United States

打ち上げ Feb 20, 2026 から Vandenberg Space Force Base

Loading…

次のパス (今後24時間)

TLE

最新Source: CelesTrak SupGP

元期: Sep 15, 2026, 03:13 UTC

1 67854C 26034E   26258.13451389 -.00002661  00000+0 -78629-4 0  2582
2 67854  53.1600  43.0210 0001099  91.1899  82.2285 15.34390518    10

AllMySatでSTARLINK-36608をリアルタイム追跡

Download on the App Store